Location: Wildcat Hills Observatory
(41.6350°N, 103.6812°W)
Time: 15:22:26
(UTC-06:00)

Daily predictions for brighter satellites

Satellite Brightness Start Highest point End
(mag) Time Altitude Azimuth Time Altitude Azimuth Time Altitude Azimuth
Spot 2 Rocket 3.6 20:15:15 10° SSE 20:20:16 63° ENE 20:25:19 10° N
SeaSat 1 2.7 20:16:08 10° NE 20:20:55 49° ESE 20:25:40 10° S
NOSS 3-1 (C) 3.5 20:15:19 10° SW 20:21:04 83° NW 20:27:33 10° NE
Cosmos 1624 Rocket 4.3 20:15:56 10° SSW 20:21:16 78° WNW 20:26:37 10° NNE
Cosmos 2322 Rocket 3.3 20:17:05 10° SSE 20:21:22 22° E 20:25:39 10° NE
Cosmos 1441 Rocket 3.1 20:19:30 10° N 20:23:15 83° E 20:26:59 10° S
Cosmos 2263 Rocket 3.8 20:19:07 10° N 20:23:17 20° NE 20:27:25 10° E
Cosmos 1140 Rocket 4.2 20:19:07 10° N 20:23:58 37° ENE 20:28:48 10° SE
BREEZE-M DEB (TANK) 2.9 20:23:58 10° SSW 20:26:30 36° SE 20:32:09 10° ENE
Meteor 1-20 Rocket 4.2 20:21:09 10° S 20:26:44 81° E 20:32:15 10° NNE
Cosmos 1954 Rocket 4.4 20:21:52 10° N 20:27:00 47° ENE 20:32:06 10° SE
Cosmos 405 Rocket 3.5 20:23:27 10° NNW 20:27:11 54° W 20:30:57 10° S
Okean 2 Rocket 3.1 20:26:03 10° S 20:30:30 70° E 20:35:01 10° NNE
SL-16 R/B 3.1 20:25:55 10° SSE 20:30:31 26° ESE 20:35:10 10° NE
ERBS 2.3 20:35:45 10° SSW 20:39:11 60° SE 20:42:36 10° NE
Helios 1A 3.8 20:38:36 10° SE 20:42:20 34° ENE 20:46:13 10° N
EXPRESS MD2 2.7 20:41:26 10° SW 20:43:53 56° SE 20:48:00 10° ENE
Lacrosse 5 3.4 20:41:42 10° SSE 20:44:15 14° ESE 20:46:50 10° E
Resurs 1-3 4.0 20:42:19 10° S 20:46:41 65° W 20:51:03 10° NNW
Envisat 3.0 20:44:06 10° SSE 20:49:11 89° ENE 20:54:18 10° NNW
ERS-1 Rocket 4.1 20:46:08 14° ESE 20:49:36 28° ENE 20:53:50 10° N
Meteor 1-13 Rocket 4.5 20:44:17 10° N 20:50:11 58° ENE 20:56:01 10° SSE
Cosmos 2360 Rocket 3.6 20:55:38 16° ESE 20:56:51 17° E 21:00:20 10° ENE
Cosmos 1980 Rocket 2.7 20:51:56 10° SW 20:57:30 64° WNW 21:03:04 10° NNE
YAOGAN 6 2.7 20:55:17 15° SSE 20:58:05 53° ENE 21:01:33 10° N
Cosmos 1633 3.3 20:54:51 10° SSW 20:58:23 56° W 21:01:59 10° N
Atlas Centaur 2 3.6 20:53:14 10° WSW 21:00:11 33° S 21:04:26 18° SE
Meteor 2-4 Rocket 3.9 20:56:59 10° N 21:02:22 51° ENE 21:06:47 16° SSE
ATLAS 3B R/B 4.0 20:59:23 10° NNW 21:04:59 26° NE 21:09:41 13° E
MINOTAUR R/B 4.2 21:02:18 10° NNW 21:05:05 81° ENE 21:06:23 28° SSE
Cosmos 44 3.1 21:00:46 10° NW 21:05:11 81° WSW 21:08:37 18° SSE
NOSS 2-3 (D) 4.3 21:04:09 10° S 21:08:24 37° ESE 21:13:11 10° NE
S3M 4.0 21:06:43 10° N 21:12:59 89° W 21:19:19 10° S
Resurs 01 Rocket 3.4 21:09:08 10° SSW 21:13:04 31° W 21:17:02 10° NW
NOAA 11 4.4 21:10:22 19° SE 21:14:10 53° ENE 21:19:30 10° N
Cosmos 1553 Rocket 4.1 21:10:30 10° N 21:16:41 77° W 21:22:45 10° S
GPS 2-05 Rocket1 3.8 21:14:06 10° WSW 21:16:59 27° S 21:17:12 27° SSE
Cosmos 1452 Rocket 4.1 21:15:12 10° SSW 21:20:25 61° WNW 21:25:41 10° NNE
Okean 1 Rocket 3.4 21:18:35 24° SSE 21:20:45 44° E 21:24:55 10° NNE
CZ-4B DEB 2.5 21:20:20 46° SE 21:20:56 62° ENE 21:23:48 10° N
Cosmos 1850 Rocket 4.0 21:18:06 10° NNW 21:23:27 69° ENE 21:26:29 26° SSE
Cosmos 2266 Rocket 3.9 21:18:44 10° S 21:24:43 68° E 21:30:43 10° NNE
Tiangong 1 0.9 21:22:22 10° W 21:25:08 67° N 21:25:37 51° ENE
Cosmos 1420 Rocket 4.1 21:20:23 10° SSW 21:25:33 78° WNW 21:30:47 10° NNE
Abrixas rocket 4.2 21:23:32 10° WNW 21:26:24 27° N 21:29:11 11° NE
Meteor 1-11 Rocket 3.8 21:21:44 10° S 21:27:37 83° W 21:33:25 10° N
Cosmos 1300 Rocket 3.4 21:25:19 11° S 21:29:27 85° E 21:33:47 10° N
BREEZE-M DEB (TANK) 4.3 21:26:11 10° WNW 21:30:04 51° SSW 21:38:52 20° SE
Cosmos 2151 Rocket 4.5 21:27:38 10° SSW 21:31:54 49° W 21:36:11 10° N
Cosmos 1607 4.3 21:25:37 10° NNW 21:31:56 54° NE 21:35:13 28° ESE
ATLAS 2AS CENTAUR R/B 3.1 21:27:12 10° S 21:34:33 54° ESE 21:42:22 10° NE
SPOT 1/Viking Rocket 4.4 21:33:49 27° E 21:35:22 33° ENE 21:40:00 10° N
Cosmos 1939 Rocket 4.4 21:34:44 10° SSW 21:38:22 32° W 21:41:57 10° NNW
Terra 3.5 21:41:15 18° ENE 21:41:42 18° ENE 21:44:51 10° NNE
Cosmos 1025 Rocket 3.2 21:37:50 10° N 21:42:01 51° E 21:42:44 45° ESE
Helios 1B rocket 3.0 21:40:22 10° N 21:44:24 59° WNW 21:48:26 10° SSW
NOSS 2-3 (E) 3.7 21:40:45 10° SSW 21:45:24 83° SE 21:50:50 10° NE
DELTA 2 R/B (1) 4.2 21:40:35 10° W 21:45:49 42° SSW 21:47:30 33° SSE
USA 245 4.1 21:44:19 37° SE 21:46:14 58° ENE 21:50:50 10° N
Cosmos 1536 3.5 21:46:54 13° SSW 21:50:27 54° W 21:54:29 10° N
MetOp-A 4.1 21:48:14 33° SSE 21:50:47 88° ENE 21:56:11 10° NNW
Cosmos 220 Rocket 4.0 21:46:33 10° NNW 21:50:49 62° ENE 21:51:27 54° ESE
SAR-Lupe-4 3.9 21:51:29 47° SSW 21:52:16 62° WSW 21:55:52 10° NNW
H-2A R/B 4.4 21:53:26 11° ENE 21:53:26 11° ENE 21:54:34 10° NE
Lacrosse 5 rocket 2.6 21:52:02 10° WNW 21:55:16 27° SW 21:55:56 26° SW
Meteor 1-23 Rocket 4.3 21:52:25 10° NNW 21:58:00 75° W 22:00:48 30° S
SL-08 RB Rocket 3.7 21:57:34 55° SE 21:58:22 67° ENE 22:02:55 10° N
Cosmos 2278 Rocket 4.4 21:59:46 10° NNE 22:01:59 12° NE 22:03:58 10° ENE
Cosmos 1932 4.5 21:56:58 10° NNW 22:03:29 76° NE 22:05:39 44° SE
Cosmos 1238 Rocket 4.3 21:57:47 10° N 22:04:24 54° ENE 22:06:09 43° SE
Cosmos 2322 Rocket 3.0 21:59:25 10° SW 22:04:59 53° WNW 22:10:34 10° NNE
ARGOS 3.1 22:04:41 42° S 22:06:34 83° WSW 22:11:58 10° NNW
Cosmos 2263 Rocket 2.4 22:02:05 10° NNW 22:07:46 68° WSW 22:09:44 41° S
H-2A R/B 1.9 22:12:37 61° SE 22:13:27 77° ENE 22:18:30 10° N
Cosmos 1515 3.9 22:09:42 10° N 22:13:00 65° N 22:13:00 65° N
SL-16 R/B 3.3 22:08:57 10° SW 22:14:21 45° WNW 22:19:47 10° NNE
Cosmos 1892 Rocket 4.0 22:10:12 10° N 22:14:04 49° NE 22:14:04 49° NE
Cosmos 1844 Rocket 3.6 22:11:25 10° N 22:16:33 33° ENE 22:17:17 32° ENE
SPOT 5 2.9 22:16:22 59° S 22:17:16 80° WSW 22:22:04 10° NNW
Cosmos 2322 3.5 22:20:22 58° S 22:21:23 72° ESE 22:27:03 10° NNE
Lacrosse 5 1.7 22:21:27 10° SW 22:26:32 88° SE 22:31:38 10° NE
Cosmos 2219 Rocket 4.0 22:30:51 18° ENE 22:30:51 18° ENE 22:32:37 10° NE
COSMOS 2428 3.5 22:29:36 36° ENE 22:29:36 36° ENE 22:33:29 10° NE
ERS-1 Rocket 4.2 22:26:08 25° SW 22:28:14 35° W 22:32:50 10° NNW
Okean 2 3.9 22:24:16 10° NNW 22:28:14 52° W 22:28:14 52° W
Cosmos 1500 4.1 22:31:13 47° N 22:31:13 47° N 22:34:06 10° N
Cosmos 1544 Rocket 4.3 22:32:07 45° NE 22:32:07 45° NE 22:35:21 10° NNE
USA 238 DEB 3.8 22:24:25 10° NNW 22:31:30 67° NE 22:33:14 51° ESE
USA 238 3.9 22:24:32 10° NNW 22:31:37 66° NE 22:33:20 51° ESE
Cosmos 2360 Rocket 2.4 22:37:16 28° SW 22:40:13 67° WNW 22:45:51 10° NNE
Cosmos 1844 4.4 22:36:50 10° N 22:42:10 40° ENE 22:42:15 40° ENE
Cosmos 2333 Rocket 4.1 22:45:14 17° ENE 22:45:14 17° ENE 22:46:53 10° NE
Nadezhda 1 Rocket 4.0 22:36:51 10° N 22:43:05 61° E 22:43:23 60° E
Cosmos 1455 Rocket 4.0 22:45:18 43° NNE 22:45:18 43° NNE 22:48:22 10° N
Cosmos 1486 Rocket 4.0 22:42:39 10° NNW 22:47:32 73° NNE 22:47:32 73° NNE
Atlas Centaur 2 3.9 22:43:01 10° WSW 22:47:04 23° SW 22:47:04 23° SW
Cosmos 1302 Rocket 4.1 22:50:31 70° NNE 22:50:31 70° NNE 22:55:11 10° NNE
DMSP B5D2-2 4.1 22:47:29 10° N 22:52:45 77° WNW 22:52:50 76° W
ATLAS 3B R/B 2.4 22:49:41 10° NW 22:56:24 78° WSW 22:56:56 73° SSW
NOSS 3-2 (C) 4.4 23:01:06 10° NNW 23:08:24 53° NE 23:10:01 47° E
Cosmos 2237 Rocket 4.1 23:11:56 18° NE 23:11:56 18° NE 23:13:32 10° NE
Meteor 1-21 4.4 23:07:34 10° N 23:12:23 64° NNE 23:12:23 64° NNE
Terra 2.8 23:20:08 42° NW 23:20:08 42° NW 23:23:41 10° NNW
ATLAS 2AS CENTAUR R/B 4.1 23:18:30 10° WSW 23:25:51 42° NW 23:33:31 10° NNE
H-2A R/B 3.8 23:30:33 31° NNW 23:30:33 31° NNW 23:32:54 10° NNW
NOSS 3-4 (A) 4.3 23:37:53 41° NE 23:37:53 41° NE 23:42:00 10° NE
NOSS 3-4 (C) 4.3 23:38:02 40° NE 23:38:02 40° NE 23:42:06 10° NE
Cosmos 2278 Rocket 2.9 23:41:31 10° NNW 23:45:48 50° N 23:45:48 50° N
CENTAUR R/B 3.9 23:42:25 10° NNW 23:49:47 43° NE 23:51:50 37° ENE
H-2A R/B 4.5 23:53:16 12° W 23:53:23 12° W 23:55:22 10° WNW
